Location: Groß Eilstorf
(52.8200°N, 9.4552°E)
Time: 10:58:52
(UTC+00:00)

Cosmos 158 Rocket - Pass Details

Date: 15 May 2026
Orbit: 694 x 785 km, 74.0° (Epoch: 6 June)

Event Time Altitude Azimuth Distance (km) Brightness Sun altitude
Exits shadow 23:39:40 32° 179° (S) 1,314 4.6 -18.0°
Maximum altitude 23:42:02 63° 110° (ESE) 875 4.2 -17.9°
Drops below altitude 10° 23:47:17 10° 31° (NNE) 2,336 7.5 -17.9°
Sets 23:49:41 0° 28° (NNE) 3,257 8.6 -17.8°
